This is the latest recevied weather packets stored in our database for station/object KN6KS. If no packets are shown the sender has not sent any weather packets the latest 10 day(s).
| Time | Temp. | Humidity | Pressure | Rain* | Wind** | Luminosity | Snow |
|---|---|---|---|---|---|---|---|
| 1777470564 | 10° C | 63% | 1017.2 hPa | 0 mm | - | 35 W/m² | - |
| 1777470260 | 10° C | 63% | 1017.4 hPa | 0 mm | - | 32 W/m² | - |
| 1777469956 | 10° C | 63% | 1017.3 hPa | 0 mm | - | 27 W/m² | - |
| 1777469652 | 9.44° C | 64% | 1017.3 hPa | 0 mm | - | 23 W/m² | - |
| 1777469347 | 9.44° C | 65% | 1017.3 hPa | 0 mm | - | 19 W/m² | - |
| 1777469044 | 8.89° C | 66% | 1017.1 hPa | 0 mm | - | 14 W/m² | - |
| 1777468738 | 8.89° C | 65% | 1017.4 hPa | 0 mm | - | 10 W/m² | - |
| 1777468435 | 8.89° C | 65% | 1017.3 hPa | 0 mm | - | 6 W/m² | - |
| 1777468130 | 9.44° C | 63% | 1017.2 hPa | 0 mm | - | 4 W/m² | - |
| 1777467828 | 9.44° C | 63% | 1017.3 hPa | 0 mm | - | 1 W/m² | - |
| 1777467523 | 9.44° C | 63% | 1017.1 hPa | 0 mm | - | 0 W/m² | - |
| 1777467218 | 9.44° C | 62% | 1017.2 hPa | 0 mm | - | 0 W/m² | - |
| 1777466915 | 9.44° C | 62% | 1017.1 hPa | 0 mm | - | 0 W/m² | - |
| 1777466613 | 8.89° C | 64% | 1017.1 hPa | 0 mm | - | 0 W/m² | - |
| 1777466309 | 9.44° C | 65% | 1017 hPa | 0 mm | - | 0 W/m² | - |
| 1777466006 | 9.44° C | 64% | 1017 hPa | 0 mm | - | 0 W/m² | - |
| 1777465702 | 9.44° C | 64% | 1016.8 hPa | 0 mm | - | 0 W/m² | - |
| 1777465397 | 8.89° C | 66% | 1016.9 hPa | 0 mm | - | 0 W/m² | - |
| 1777465096 | 9.44° C | 65% | 1016.7 hPa | 0 mm | - | 0 W/m² | - |
| 1777464792 | 10° C | 63% | 1016.6 hPa | 0 mm | - | 0 W/m² | - |
| 1777464488 | 10° C | 61% | 1016.6 hPa | 0 mm | - | 0 W/m² | - |
| 1777464184 | 10° C | 61% | 1016.9 hPa | 0 mm | - | 0 W/m² | - |
| 1777463884 | 10° C | 61% | 1016.7 hPa | 0 mm | - | 0 W/m² | - |
| 1777463580 | 10° C | 61% | 1016.7 hPa | 0 mm | - | 0 W/m² | - |
| 1777463275 | 10° C | 61% | 1016.3 hPa | 0 mm | - | 0 W/m² | - |
* Rain latest hour (hover to see other rain measurements)
** Current wind speed in m/s (hover to see current wind gust speed)